| time (UTC) | temp C | wind direction | speed KPH | gust KPH | rain 1hr cm | rain 24hr cm | rain mn cm | humidity % | barometer mb |
| 20260903161648 | 31 | 26 | 4.8 | 14.5 | 0.00 | 0.00 | 0.00 | 74 | 1015.6 |
| 20260903161147 | 31 | 325 | 1.6 | 11.3 | 0.00 | 0.00 | 0.00 | 75 | 1015.2 |
| 20260903160647 | 31 | 360 | 9.7 | 17.7 | 0.00 | 0.00 | 0.00 | 74 | 1015.2 |
| 20260903160149 | 31 | 1 | 3.2 | 12.9 | 0.00 | 0.00 | 0.00 | 74 | 1015.2 |
| 20260903155647 | 30 | 328 | 9.7 | 12.9 | 0.00 | 0.00 | 0.00 | 76 | 1015.6 |
| 20260903155147 | 30 | 360 | 6.4 | 9.7 | 0.00 | 0.00 | 0.00 | 77 | 1015.2 |
| 20260903154647 | 30 | 1 | 6.4 | 9.7 | 0.00 | 0.00 | 0.00 | 78 | 1015.2 |
| 20260903154147 | 30 | 62 | 4.8 | 14.5 | 0.00 | 0.00 | 0.00 | 78 | 1015.2 |
| 20260903153647 | 30 | 47 | 6.4 | 12.9 | 0.00 | 0.00 | 0.00 | 77 | 1015.2 |
| 20260903153147 | 30 | 354 | 3.2 | 9.7 | 0.00 | 0.00 | 0.00 | 78 | 1015.2 |
| 20260903152647 | 30 | 25 | 4.8 | 11.3 | 0.00 | 0.00 | 0.00 | 78 | 1015.2 |
| 20260903152146 | 30 | 18 | 12.9 | 12.9 | 0.00 | 0.00 | 0.00 | 77 | 1015.2 |
| 20260903151647 | 30 | 353 | 4.8 | 11.3 | 0.00 | 0.00 | 0.00 | 76 | 1014.9 |
| 20260903151146 | 31 | 346 | 4.8 | 11.3 | 0.00 | 0.00 | 0.00 | 76 | 1014.9 |
| 20260903150648 | 31 | 51 | 6.4 | 9.7 | 0.00 | 0.00 | 0.00 | 69 | 1015.2 |
| 20260903150146 | 31 | 70 | 9.7 | 12.9 | 0.00 | 0.00 | 0.00 | 66 | 1015.2 |
| 20260903145646 | 31 | 29 | 1.6 | 6.4 | 0.00 | 0.00 | 0.00 | 67 | 1015.2 |
| 20260903145148 | 31 | 227 | 3.2 | 6.4 | 0.00 | 0.00 | 0.00 | 70 | 1014.9 |
| 20260903144648 | 31 | 344 | 6.4 | 9.7 | 0.00 | 0.00 | 0.00 | 68 | 1014.9 |
| 20260903144148 | 31 | 302 | 3.2 | 4.8 | 0.00 | 0.00 | 0.00 | 73 | 1014.9 |
| 20260903143650 | 30 | 318 | 3.2 | 8.0 | 0.00 | 0.00 | 0.00 | 74 | 1015.2 |
| 20260903143147 | 30 | 317 | 4.8 | 6.4 | 0.00 | 0.00 | 0.00 | 72 | 1015.2 |
| 20260903142647 | 30 | 51 | 12.9 | 14.5 | 0.00 | 0.00 | 0.00 | 71 | 1015.2 |
| 20260903142147 | 30 | 357 | 3.2 | 12.9 | 0.00 | 0.00 | 0.00 | 74 | 1015.2 |
| 20260903141646 | 30 | 47 | 8.0 | 8.0 | 0.00 | 0.00 | 0.00 | 74 | 1015.2 |
| 20260903141147 | 30 | 75 | 4.8 | 8.0 | 0.00 | 0.00 | 0.00 | 74 | 1015.2 |
| 20260903140647 | 30 | 2 | 6.4 | 8.0 | 0.00 | 0.00 | 0.00 | 74 | 1015.2 |
| 20260903140147 | 30 | 357 | 3.2 | 8.0 | 0.00 | 0.00 | 0.00 | 75 | 1015.2 |
| 20260903135647 | 30 | 347 | 4.8 | 6.4 | 0.00 | 0.00 | 0.00 | 74 | 1015.2 |
| 20260903135147 | 30 | 324 | 0.0 | 6.4 | 0.00 | 0.00 | 0.00 | 75 | 1015.2 |
| 20260903134646 | 30 | 329 | 6.4 | 8.0 | 0.00 | 0.00 | 0.00 | 74 | 1015.2 |
| 20260903134147 | 30 | 53 | 3.2 | 6.4 | 0.00 | 0.00 | 0.00 | 75 | 1015.2 |
| 20260903133649 | 30 | 81 | 4.8 | 6.4 | 0.00 | 0.00 | 0.00 | 75 | 1015.2 |
| 20260903133147 | 30 | 51 | 4.8 | 8.0 | 0.00 | 0.00 | 0.00 | 76 | 1015.2 |
| 20260903132647 | 30 | 330 | 1.6 | 4.8 | 0.00 | 0.00 | 0.00 | 78 | 1015.2 |
| 20260903132147 | 30 | 331 | 3.2 | 4.8 | 0.00 | 0.00 | 0.00 | 79 | 1015.2 |
| 20260903131647 | 30 | 62 | 3.2 | 6.4 | 0.00 | 0.00 | 0.00 | 77 | 1015.2 |
| 20260903131147 | 30 | 310 | 0.0 | 1.6 | 0.00 | 0.00 | 0.00 | 78 | 1015.2 |
| 20260903130646 | 30 | 92 | 1.6 | 4.8 | 0.00 | 0.00 | 0.00 | 77 | 1015.2 |
| 20260903130147 | 30 | 262 | 0.0 | 3.2 | 0.00 | 0.00 | 0.00 | 79 | 1015.2 |
| 20260903125647 | 29 | 350 | 1.6 | 4.8 | 0.00 | 0.00 | 0.00 | 82 | 1015.2 |
| 20260903125146 | 28 | 325 | 1.6 | 4.8 | 0.00 | 0.00 | 0.00 | 85 | 1015.2 |
| 20260903124647 | 28 | 46 | 1.6 | 4.8 | 0.00 | 0.00 | 0.00 | 86 | 1014.9 |
| 20260903124146 | 28 | 300 | 1.6 | 3.2 | 0.00 | 0.00 | 0.00 | 87 | 1015.2 |
| 20260903123647 | 28 | 181 | 3.2 | 4.8 | 0.00 | 0.00 | 0.00 | 88 | 1015.2 |
| 20260903123149 | 27 | 105 | 0.0 | 4.8 | 0.00 | 0.00 | 0.00 | 90 | 1015.2 |
| 20260903122647 | 27 | 269 | 0.0 | 4.8 | 0.00 | 0.00 | 0.00 | 93 | 1015.2 |
| 20260903122147 | 26 | 323 | 1.6 | 4.8 | 0.00 | 0.00 | 0.00 | 95 | 1014.9 |
| 20260903121650 | 26 | 182 | 3.2 | 4.8 | 0.00 | 0.00 | 0.00 | 95 | 1015.2 |
| 20260903121146 | 26 | 187 | 3.2 | 4.8 | 0.00 | 0.00 | 0.00 | 96 | 1014.9 |
| 20260903120647 | 26 | 169 | 0.0 | 4.8 | 0.00 | 0.00 | 0.00 | 96 | 1014.9 |
| 20260903120147 | 26 | 269 | 0.0 | 4.8 | 0.00 | 0.00 | 0.00 | 97 | 1015.2 |
| 20260903115646 | 25 | 272 | 1.6 | 4.8 | 0.00 | 0.00 | 0.00 | 97 | 1014.9 |
| 20260903115146 | 25 | 132 | 3.2 | 4.8 | 0.00 | 0.00 | 0.00 | 97 | 1014.9 |
| 20260903114646 | 25 | 323 | 3.2 | 6.4 | 0.00 | 0.00 | 0.00 | 97 | 1014.9 |
| 20260903114149 | 25 | 84 | 3.2 | 4.8 | 0.00 | 0.00 | 0.00 | 97 | 1014.9 |
| 20260903113650 | 25 | 276 | 3.2 | 4.8 | 0.00 | 0.00 | 0.00 | 97 | 1014.9 |
| 20260903113147 | 25 | 30 | 1.6 | 4.8 | 0.00 | 0.00 | 0.00 | 97 | 1014.6 |
| 20260903112648 | 25 | 196 | 1.6 | 4.8 | 0.00 | 0.00 | 0.00 | 97 | 1014.6 |
| 20260903112147 | 25 | 271 | 1.6 | 3.2 | 0.00 | 0.00 | 0.00 | 96 | 1014.6 |
| 20260903111646 | 26 | 173 | 0.0 | 4.8 | 0.00 | 0.00 | 0.00 | 96 | 1014.2 |
| 20260903111149 | 26 | 227 | 0.0 | 3.2 | 0.00 | 0.00 | 0.00 | 96 | 1014.2 |
| 20260903110647 | 26 | 304 | 0.0 | 3.2 | 0.00 | 0.00 | 0.00 | 96 | 1014.2 |
| 20260903110146 | 26 | 315 | 0.0 | 1.6 | 0.00 | 0.00 | 0.00 | 96 | 1014.2 |
| 20260903105647 | 26 | 224 | 0.0 | 0.0 | 0.00 | 0.00 | 0.00 | 96 | 1014.2 |
| 20260903105146 | 26 | 245 | 1.6 | 1.6 | 0.00 | 0.00 | 0.00 | 96 | 1014.2 |
| 20260903104648 | 26 | 241 | 0.0 | 1.6 | 0.00 | 0.00 | 0.00 | 96 | 1014.2 |
| 20260903104146 | 26 | 242 | 1.6 | 1.6 | 0.00 | 0.00 | 0.00 | 95 | 1014.2 |
| 20260903103648 | 26 | 165 | 0.0 | 1.6 | 0.00 | 0.00 | 0.00 | 95 | 1014.2 |
| 20260903103148 | 26 | 224 | 1.6 | 1.6 | 0.00 | 0.00 | 0.00 | 95 | 1014.2 |
| 20260903102647 | 26 | 225 | 0.0 | 1.6 | 0.00 | 0.00 | 0.00 | 94 | 1014.2 |
| 20260903102146 | 26 | 230 | 1.6 | 3.2 | 0.00 | 0.00 | 0.00 | 93 | 1014.2 |
| 20260903101647 | 26 | 322 | 0.0 | 3.2 | 0.00 | 0.00 | 0.00 | 93 | 1014.2 |
| 20260903101147 | 26 | 31 | 0.0 | 3.2 | 0.00 | 0.00 | 0.00 | 93 | 1014.2 |
| 20260903100647 | 26 | 66 | 0.0 | 3.2 | 0.00 | 0.00 | 0.00 | 93 | 1014.2 |
| 20260903100146 | 26 | 58 | 3.2 | 4.8 | 0.00 | 0.00 | 0.00 | 94 | 1013.9 |
| 20260903095646 | 26 | 55 | 0.0 | 4.8 | 0.00 | 0.00 | 0.00 | 95 | 1014.2 |
| 20260903095146 | 26 | 76 | 0.0 | 1.6 | 0.00 | 0.00 | 0.00 | 95 | 1013.9 |
| 20260903094646 | 26 | 65 | 0.0 | 3.2 | 0.00 | 0.00 | 0.00 | 96 | 1013.9 |
| 20260903094146 | 26 | 123 | 0.0 | 1.6 | 0.00 | 0.00 | 0.00 | 97 | 1013.9 |
| 20260903093649 | 26 | 135 | 0.0 | 0.0 | 0.00 | 0.00 | 0.00 | 96 | 1013.9 |
| 20260903093147 | 26 | 217 | 0.0 | 1.6 | 0.00 | 0.00 | 0.00 | 97 | 1013.9 |
| 20260903092646 | 26 | 176 | 1.6 | 3.2 | 0.00 | 0.00 | 0.00 | 97 | 1013.9 |
| 20260903092146 | 26 | 137 | 0.0 | 3.2 | 0.00 | 0.00 | 0.00 | 97 | 1013.9 |
| 20260903091646 | 26 | 104 | 0.0 | 3.2 | 0.00 | 0.00 | 0.00 | 98 | 1013.9 |
| 20260903091155 | 26 | 224 | 0.0 | 1.6 | 0.00 | 0.00 | 0.00 | 97 | 1013.9 |
| 20260903090649 | 26 | 217 | 1.6 | 3.2 | 0.00 | 0.00 | 0.00 | 98 | 1014.2 |
| 20260903090147 | 26 | 202 | 0.0 | 1.6 | 0.00 | 0.00 | 0.00 | 97 | 1013.9 |
| 20260903085647 | 26 | 224 | 0.0 | 1.6 | 0.00 | 0.00 | 0.00 | 97 | 1013.9 |
| 20260903085147 | 26 | 246 | 0.0 | 1.6 | 0.00 | 0.00 | 0.00 | 97 | 1013.9 |
| 20260903084646 | 26 | 227 | 0.0 | 0.0 | 0.00 | 0.00 | 0.00 | 97 | 1014.2 |
| 20260903084146 | 26 | 230 | 0.0 | 1.6 | 0.00 | 0.00 | 0.00 | 97 | 1013.9 |
| 20260903083647 | 26 | 242 | 0.0 | 1.6 | 0.00 | 0.00 | 0.00 | 97 | 1013.9 |
| 20260903083146 | 26 | 129 | 0.0 | 0.0 | 0.00 | 0.00 | 0.00 | 97 | 1013.9 |
| 20260903082647 | 26 | 169 | 0.0 | 0.0 | 0.00 | 0.00 | 0.00 | 97 | 1013.9 |
| 20260903082146 | 26 | 44 | 0.0 | 0.0 | 0.00 | 0.00 | 0.00 | 97 | 1013.9 |
| 20260903081647 | 26 | 129 | 0.0 | 0.0 | 0.00 | 0.00 | 0.00 | 96 | 1014.2 |
| 20260903081147 | 26 | 231 | 0.0 | 1.6 | 0.00 | 0.00 | 0.00 | 96 | 1013.9 |
| 20260903080647 | 26 | 242 | 0.0 | 1.6 | 0.00 | 0.00 | 0.00 | 96 | 1013.9 |
| 20260903080147 | 26 | 216 | 1.6 | 3.2 | 0.00 | 0.00 | 0.00 | 96 | 1014.2 |
| 20260903075646 | 26 | 183 | 1.6 | 3.2 | 0.00 | 0.00 | 0.00 | 96 | 1013.9 |
| 20260903075147 | 26 | 246 | 0.0 | 1.6 | 0.00 | 0.00 | 0.00 | 96 | 1014.2 |
| 20260903074654 | 26 | 250 | 1.6 | 3.2 | 0.00 | 0.00 | 0.00 | 96 | 1014.2 |
| 20260903074146 | 26 | 224 | 0.0 | 1.6 | 0.00 | 0.00 | 0.00 | 96 | 1013.9 |
| 20260903073647 | 26 | 279 | 0.0 | 1.6 | 0.00 | 0.00 | 0.00 | 96 | 1014.2 |
| 20260903073148 | 26 | 217 | 0.0 | 0.0 | 0.00 | 0.00 | 0.00 | 95 | 1014.2 |
| 20260903072650 | 26 | 238 | 0.0 | 1.6 | 0.00 | 0.00 | 0.00 | 95 | 1013.9 |
| 20260903072147 | 26 | 227 | 0.0 | 3.2 | 0.00 | 0.00 | 0.00 | 95 | 1014.2 |
| 20260903071647 | 26 | 256 | 0.0 | 1.6 | 0.00 | 0.00 | 0.00 | 95 | 1014.2 |
| 20260903071148 | 26 | 343 | 0.0 | 1.6 | 0.00 | 0.00 | 0.00 | 96 | 1014.2 |
| 20260903070646 | 26 | 315 | 0.0 | 1.6 | 0.00 | 0.00 | 0.00 | 96 | 1014.2 |
| 20260903070148 | 26 | 217 | 0.0 | 3.2 | 0.00 | 0.00 | 0.00 | 96 | 1014.6 |
| 20260903065647 | 26 | 235 | 1.6 | 3.2 | 0.00 | 0.00 | 0.00 | 96 | 1014.6 |
| 20260903065147 | 26 | 205 | 0.0 | 3.2 | 0.00 | 0.00 | 0.00 | 96 | 1014.6 |
| 20260903064646 | 26 | 223 | 1.6 | 3.2 | 0.00 | 0.00 | 0.00 | 96 | 1014.6 |
| 20260903064146 | 26 | 204 | 1.6 | 1.6 | 0.00 | 0.00 | 0.00 | 95 | 1014.6 |
| 20260903063646 | 26 | 220 | 0.0 | 1.6 | 0.00 | 0.00 | 0.00 | 95 | 1014.6 |
| 20260903063146 | 26 | 252 | 0.0 | 1.6 | 0.00 | 0.00 | 0.00 | 95 | 1014.6 |
| 20260903062647 | 26 | 242 | 0.0 | 1.6 | 0.00 | 0.00 | 0.00 | 95 | 1014.6 |
| 20260903062146 | 26 | 222 | 1.6 | 3.2 | 0.00 | 0.00 | 0.00 | 95 | 1014.9 |
| 20260903061648 | 26 | 231 | 1.6 | 3.2 | 0.00 | 0.00 | 0.00 | 95 | 1014.9 |
| 20260903061146 | 26 | 224 | 0.0 | 1.6 | 0.00 | 0.00 | 0.00 | 95 | 1014.9 |
| 20260903060646 | 26 | 259 | 0.0 | 1.6 | 0.00 | 0.00 | 0.00 | 95 | 1014.9 |
| 20260903060152 | 26 | 233 | 0.0 | 0.0 | 0.00 | 0.00 | 0.00 | 95 | 1014.6 |
| 20260903055648 | 26 | 224 | 0.0 | 1.6 | 0.00 | 0.00 | 0.00 | 95 | 1014.9 |
| 20260903055147 | 26 | 247 | 0.0 | 1.6 | 0.00 | 0.00 | 0.00 | 95 | 1014.9 |
| 20260903054646 | 26 | 227 | 0.0 | 3.2 | 0.00 | 0.00 | 0.00 | 96 | 1014.9 |
| 20260903054146 | 26 | 205 | 0.0 | 0.0 | 0.00 | 0.00 | 0.00 | 95 | 1015.2 |
| 20260903053647 | 26 | 293 | 0.0 | 0.0 | 0.00 | 0.00 | 0.00 | 95 | 1014.9 |
| 20260903053147 | 26 | 224 | 0.0 | 1.6 | 0.00 | 0.00 | 0.00 | 95 | 1014.9 |
| 20260903052646 | 26 | 184 | 1.6 | 1.6 | 0.00 | 0.00 | 0.00 | 95 | 1014.9 |
| 20260903052146 | 26 | 216 | 0.0 | 1.6 | 0.00 | 0.00 | 0.00 | 94 | 1014.9 |
| 20260903051647 | 27 | 180 | 0.0 | 1.6 | 0.00 | 0.00 | 0.00 | 93 | 1014.9 |
| 20260903051146 | 27 | 205 | 0.0 | 1.6 | 0.00 | 0.00 | 0.00 | 93 | 1015.2 |
| 20260903050647 | 27 | 229 | 0.0 | 3.2 | 0.00 | 0.00 | 0.00 | 94 | 1015.2 |
| 20260903050147 | 27 | 249 | 1.6 | 3.2 | 0.00 | 0.00 | 0.00 | 94 | 1015.2 |
| 20260903045647 | 27 | 217 | 0.0 | 1.6 | 0.00 | 0.00 | 1.73 | 93 | 1014.9 |
| 20260903045147 | 27 | 234 | 0.0 | 1.6 | 0.00 | 0.00 | 1.73 | 93 | 1015.2 |
| 20260903044647 | 27 | 344 | 0.0 | 1.6 | 0.00 | 0.00 | 1.73 | 93 | 1015.2 |
| 20260903044146 | 27 | 212 | 0.0 | 0.0 | 0.00 | 0.00 | 1.73 | 93 | 1015.2 |
| 20260903043647 | 27 | 224 | 0.0 | 0.0 | 0.00 | 0.00 | 1.73 | 92 | 1015.2 |
| 20260903043146 | 27 | 230 | 0.0 | 0.0 | 0.00 | 0.00 | 1.73 | 92 | 1015.2 |
| 20260903042647 | 27 | 224 | 0.0 | 0.0 | 0.00 | 0.00 | 1.73 | 92 | 1015.2 |
| 20260903042146 | 27 | 224 | 0.0 | 0.0 | 0.00 | 0.00 | 1.73 | 91 | 1015.2 |
| 20260903041646 | 27 | 230 | 0.0 | 1.6 | 0.00 | 0.00 | 1.73 | 91 | 1015.2 |
| 20260903041147 | 27 | 209 | 1.6 | 3.2 | 0.00 | 0.00 | 1.73 | 91 | 1015.2 |
| 20260903040647 | 27 | 228 | 1.6 | 3.2 | 0.00 | 0.00 | 1.73 | 91 | 1015.2 |
| 20260903040146 | 27 | 228 | 0.0 | 3.2 | 0.00 | 0.00 | 1.73 | 91 | 1015.2 |
| 20260903035646 | 27 | 220 | 1.6 | 3.2 | 0.00 | 0.00 | 1.73 | 91 | 1015.2 |
| 20260903035147 | 27 | 227 | 0.0 | 3.2 | 0.00 | 0.00 | 1.73 | 91 | 1015.6 |
| 20260903034646 | 27 | 175 | 3.2 | 3.2 | 0.00 | 0.00 | 1.73 | 91 | 1015.6 |
| 20260903034147 | 27 | 199 | 1.6 | 3.2 | 0.00 | 0.00 | 1.73 | 90 | 1015.6 |
| 20260903033646 | 27 | 249 | 0.0 | 1.6 | 0.00 | 0.00 | 1.73 | 90 | 1015.2 |
| 20260903033146 | 27 | 209 | 0.0 | 1.6 | 0.00 | 0.00 | 1.73 | 89 | 1015.6 |
| 20260903032647 | 28 | 149 | 0.0 | 0.0 | 0.00 | 0.00 | 1.73 | 88 | 1015.6 |
| 20260903032146 | 28 | 89 | 0.0 | 1.6 | 0.00 | 0.00 | 1.73 | 89 | 1015.2 |
| 20260903031646 | 27 | 144 | 0.0 | 3.2 | 0.00 | 0.00 | 1.73 | 90 | 1015.6 |
| 20260903031146 | 27 | 224 | 0.0 | 0.0 | 0.00 | 0.00 | 1.73 | 90 | 1015.6 |
| 20260903030647 | 27 | 224 | 0.0 | 1.6 | 0.00 | 0.00 | 1.73 | 90 | 1015.2 |
| 20260903030148 | 27 | 171 | 1.6 | 3.2 | 0.00 | 0.00 | 1.73 | 89 | 1015.2 |
| 20260903025646 | 27 | 195 | 0.0 | 1.6 | 0.00 | 0.00 | 1.73 | 89 | 1015.2 |
| 20260903025146 | 28 | 217 | 0.0 | 0.0 | 0.00 | 0.00 | 1.73 | 89 | 1015.6 |
| 20260903024647 | 28 | 180 | 0.0 | 0.0 | 0.00 | 0.00 | 1.73 | 88 | 1015.6 |
| 20260903024146 | 28 | 180 | 3.2 | 3.2 | 0.00 | 0.00 | 1.73 | 89 | 1015.6 |
| 20260903023646 | 28 | 175 | 3.2 | 3.2 | 0.00 | 0.00 | 1.73 | 89 | 1015.2 |
| 20260903023148 | 28 | 179 | 1.6 | 3.2 | 0.00 | 0.00 | 1.73 | 88 | 1015.2 |
| 20260903022648 | 28 | 168 | 0.0 | 3.2 | 0.00 | 0.00 | 1.73 | 88 | 1015.2 |
| 20260903022146 | 28 | 201 | 1.6 | 3.2 | 0.00 | 0.00 | 1.73 | 88 | 1015.2 |
| 20260903021646 | 28 | 200 | 3.2 | 3.2 | 0.00 | 0.00 | 1.73 | 88 | 1015.2 |
| 20260903021147 | 28 | 183 | 1.6 | 3.2 | 0.00 | 0.00 | 1.73 | 87 | 1015.2 |
| 20260903020647 | 28 | 202 | 1.6 | 3.2 | 0.00 | 0.00 | 1.73 | 87 | 1015.2 |
| 20260903020147 | 28 | 184 | 1.6 | 3.2 | 0.00 | 0.00 | 1.73 | 87 | 1015.2 |
| 20260903015647 | 28 | 173 | 3.2 | 3.2 | 0.00 | 0.00 | 1.73 | 86 | 1014.9 |
| 20260903015149 | 28 | 193 | 0.0 | 3.2 | 0.00 | 0.00 | 1.73 | 86 | 1014.9 |
| 20260903014646 | 28 | 184 | 0.0 | 3.2 | 0.00 | 0.00 | 1.73 | 86 | 1014.9 |
| 20260903014147 | 28 | 180 | 3.2 | 3.2 | 0.00 | 0.00 | 1.73 | 86 | 1014.9 |
| 20260903013648 | 28 | 165 | 3.2 | 4.8 | 0.00 | 0.00 | 1.73 | 85 | 1014.9 |
| 20260903013148 | 28 | 168 | 3.2 | 4.8 | 0.00 | 0.00 | 1.73 | 85 | 1014.6 |
| 20260903012651 | 28 | 169 | 1.6 | 3.2 | 0.00 | 0.00 | 1.73 | 85 | 1014.6 |
| 20260903012147 | 28 | 161 | 3.2 | 4.8 | 0.00 | 0.00 | 1.73 | 86 | 1014.6 |
| 20260903011649 | 28 | 179 | 1.6 | 4.8 | 0.00 | 0.00 | 1.73 | 85 | 1014.6 |
| 20260903011147 | 28 | 180 | 1.6 | 3.2 | 0.00 | 0.00 | 1.73 | 84 | 1014.6 |
| 20260903010647 | 28 | 168 | 3.2 | 4.8 | 0.00 | 0.00 | 1.73 | 84 | 1014.2 |
| 20260903010148 | 28 | 187 | 3.2 | 3.2 | 0.00 | 0.00 | 1.73 | 85 | 1014.6 |
| 20260903005646 | 28 | 210 | 3.2 | 3.2 | 0.00 | 0.00 | 1.73 | 85 | 1014.2 |
| 20260903005146 | 28 | 207 | 3.2 | 3.2 | 0.00 | 0.00 | 1.73 | 84 | 1014.2 |
| 20260903004647 | 28 | 212 | 3.2 | 3.2 | 0.00 | 0.00 | 1.73 | 84 | 1014.2 |
| 20260903004146 | 28 | 196 | 3.2 | 4.8 | 0.00 | 0.00 | 1.73 | 83 | 1014.2 |
| 20260903003647 | 28 | 175 | 4.8 | 6.4 | 0.00 | 0.00 | 1.73 | 83 | 1014.2 |
| 20260903003147 | 28 | 177 | 3.2 | 4.8 | 0.00 | 0.00 | 1.73 | 83 | 1014.2 |
| 20260903002647 | 28 | 199 | 3.2 | 4.8 | 0.00 | 0.00 | 1.73 | 82 | 1014.2 |
| 20260903002147 | 28 | 167 | 3.2 | 4.8 | 0.00 | 0.00 | 1.73 | 82 | 1014.2 |
| 20260903001647 | 29 | 178 | 3.2 | 4.8 | 0.00 | 0.00 | 1.73 | 82 | 1014.2 |
| 20260903001147 | 29 | 191 | 4.8 | 6.4 | 0.00 | 0.00 | 1.73 | 82 | 1014.2 |
| 20260903000647 | 29 | 182 | 4.8 | 4.8 | 0.00 | 0.00 | 1.73 | 82 | 1014.2 |
| 20260903000146 | 29 | 214 | 6.4 | 8.0 | 0.00 | 0.00 | 1.73 | 81 | 1014.2 |
| 20260902235646 | 29 | 185 | 3.2 | 9.7 | 0.00 | 0.00 | 1.73 | 80 | 1014.2 |
| 20260902235147 | 29 | 186 | 4.8 | 9.7 | 0.00 | 0.00 | 1.73 | 81 | 1014.2 |
| 20260902234646 | 29 | 181 | 4.8 | 8.0 | 0.00 | 0.00 | 1.73 | 80 | 1014.2 |
| 20260902234146 | 30 | 213 | 4.8 | 8.0 | 0.00 | 0.00 | 1.73 | 80 | 1014.2 |
| 20260902233646 | 30 | 242 | 3.2 | 6.4 | 0.00 | 0.00 | 1.73 | 79 | 1014.2 |
| 20260902233146 | 30 | 197 | 4.8 | 6.4 | 0.00 | 0.00 | 1.73 | 79 | 1014.6 |
| 20260902232646 | 30 | 191 | 6.4 | 9.7 | 0.00 | 0.00 | 1.73 | 78 | 1014.2 |
| 20260902232147 | 30 | 194 | 6.4 | 6.4 | 0.00 | 0.00 | 1.73 | 78 | 1014.6 |
| 20260902231647 | 30 | 198 | 8.0 | 9.7 | 0.00 | 0.00 | 1.73 | 78 | 1014.2 |
| 20260902231146 | 30 | 193 | 4.8 | 6.4 | 0.00 | 0.00 | 1.73 | 77 | 1014.2 |
| 20260902230647 | 30 | 177 | 8.0 | 9.7 | 0.00 | 0.00 | 1.73 | 76 | 1014.2 |
| 20260902230146 | 30 | 169 | 3.2 | 9.7 | 0.00 | 0.00 | 1.73 | 76 | 1014.2 |
| 20260902225647 | 30 | 174 | 3.2 | 6.4 | 0.00 | 0.00 | 1.73 | 76 | 1014.2 |
| 20260902225146 | 30 | 172 | 8.0 | 11.3 | 0.00 | 0.00 | 1.73 | 76 | 1014.2 |
| 20260902224646 | 30 | 192 | 3.2 | 8.0 | 0.00 | 0.00 | 1.73 | 76 | 1014.2 |
| 20260902224147 | 30 | 237 | 4.8 | 8.0 | 0.00 | 0.00 | 1.73 | 76 | 1014.2 |
| 20260902223646 | 30 | 158 | 3.2 | 11.3 | 0.00 | 0.00 | 1.73 | 74 | 1014.2 |
| 20260902223147 | 30 | 210 | 8.0 | 9.7 | 0.00 | 0.00 | 1.73 | 74 | 1014.2 |
| 20260902222648 | 30 | 197 | 6.4 | 9.7 | 0.00 | 0.00 | 1.73 | 74 | 1014.2 |
| 20260902222147 | 30 | 208 | 11.3 | 14.5 | 0.00 | 0.00 | 1.73 | 75 | 1014.2 |
| 20260902221646 | 30 | 224 | 9.7 | 12.9 | 0.00 | 0.00 | 1.73 | 75 | 1014.6 |
| 20260902221146 | 30 | 205 | 6.4 | 9.7 | 0.00 | 0.00 | 1.73 | 74 | 1014.6 |
| 20260902220647 | 31 | 198 | 6.4 | 9.7 | 0.00 | 0.00 | 1.73 | 75 | 1014.9 |
| 20260902220146 | 31 | 254 | 4.8 | 6.4 | 0.00 | 0.00 | 1.73 | 73 | 1014.9 |
| 20260902215647 | 30 | 257 | 3.2 | 6.4 | 0.00 | 0.00 | 1.73 | 76 | 1014.6 |
| 20260902215146 | 30 | 339 | 0.0 | 4.8 | 0.00 | 0.00 | 1.73 | 75 | 1014.9 |
| 20260902214647 | 29 | 269 | 0.0 | 4.8 | 0.00 | 0.00 | 1.73 | 81 | 1014.6 |
| 20260902214150 | 28 | 337 | 0.0 | 6.4 | 0.00 | 0.00 | 1.73 | 82 | 1014.9 |
| 20260902213648 | 28 | 314 | 0.0 | 4.8 | 0.00 | 0.00 | 1.73 | 87 | 1014.9 |
| 20260902213146 | 27 | 261 | 3.2 | 4.8 | 0.05 | 0.00 | 1.73 | 90 | 1015.2 |
| 20260902212646 | 27 | 227 | 4.8 | 8.0 | 0.13 | 0.00 | 1.73 | 90 | 1014.9 |
| 20260902212146 | 27 | 274 | 8.0 | 9.7 | 0.05 | 0.00 | 1.70 | 91 | 1014.9 |
| 20260902211646 | 26 | 326 | 6.4 | 8.0 | 0.05 | 0.00 | 1.70 | 92 | 1014.9 |
| 20260902211147 | 26 | 303 | 4.8 | 8.0 | 0.05 | 0.00 | 1.70 | 91 | 1015.2 |
| 20260902210648 | 26 | 319 | 6.4 | 14.5 | 0.00 | 0.00 | 1.70 | 90 | 1014.9 |
| 20260902210147 | 26 | 299 | 8.0 | 14.5 | 0.05 | 0.00 | 1.70 | 91 | 1015.2 |
| 20260902205646 | 26 | 283 | 8.0 | 11.3 | 0.05 | 0.00 | 1.70 | 91 | 1015.6 |
| 20260902205146 | 25 | 325 | 0.0 | 8.0 | 0.00 | 0.00 | 1.68 | 92 | 1015.6 |
| 20260902204646 | 25 | 15 | 3.2 | 11.3 | 0.13 | 0.00 | 1.68 | 96 | 1015.6 |
| 20260902204147 | 25 | 289 | 9.7 | 14.5 | 0.30 | 0.00 | 1.68 | 96 | 1015.2 |
| 20260902203646 | 25 | 305 | 12.9 | 14.5 | 0.71 | 0.00 | 1.65 | 97 | 1015.6 |
| 20260902203147 | 25 | 298 | 12.9 | 19.3 | 1.93 | 0.00 | 1.63 | 97 | 1015.6 |
| 20260902202646 | 25 | 289 | 12.9 | 14.5 | 4.09 | 0.00 | 1.52 | 97 | 1015.9 |
| 20260902202148 | 25 | 259 | 4.8 | 6.4 | 2.39 | 0.00 | 1.24 | 97 | 1015.9 |
| 20260902201646 | 25 | 238 | 8.0 | 12.9 | 0.18 | 0.00 | 0.84 | 96 | 1015.9 |
| 20260902201147 | 25 | 279 | 17.7 | 22.5 | 2.46 | 0.00 | 0.84 | 97 | 1015.6 |
| 20260902200647 | 25 | 269 | 14.5 | 22.5 | 4.67 | 0.00 | 0.79 | 97 | 1015.2 |
| 20260902200146 | 26 | 201 | 19.3 | 29.0 | 2.82 | 0.00 | 0.46 | 94 | 1015.6 |
| 20260902195646 | 27 | 176 | 11.3 | 24.1 | 0.00 | 0.00 | 0.00 | 87 | 1015.6 |
| 20260902195146 | 28 | 209 | 14.5 | 24.1 | 0.00 | 0.00 | 0.00 | 85 | 1015.2 |
| 20260902194646 | 28 | 213 | 11.3 | 25.7 | 0.00 | 0.00 | 0.00 | 83 | 1015.6 |
| 20260902194146 | 28 | 244 | 8.0 | 20.9 | 0.00 | 0.00 | 0.00 | 83 | 1015.2 |
| 20260902193646 | 29 | 206 | 11.3 | 20.9 | 0.00 | 0.00 | 0.00 | 81 | 1015.6 |
| 20260902193146 | 30 | 188 | 12.9 | 16.1 | 0.00 | 0.00 | 0.00 | 80 | 1015.6 |
| 20260902192647 | 30 | 197 | 12.9 | 20.9 | 0.00 | 0.00 | 0.00 | 78 | 1015.6 |
| 20260902192147 | 32 | 202 | 11.3 | 20.9 | 0.00 | 0.00 | 0.00 | 69 | 1015.6 |
| 20260902191648 | 33 | 175 | 16.1 | 16.1 | 0.00 | 0.00 | 0.00 | 62 | 1015.6 |
| 20260902191150 | 34 | 129 | 1.6 | 12.9 | 0.00 | 0.00 | 0.00 | 61 | 1015.2 |
| 20260902190647 | 34 | 173 | 4.8 | 8.0 | 0.00 | 0.00 | 0.00 | 61 | 1015.2 |
| 20260902190146 | 34 | 162 | 8.0 | 14.5 | 0.00 | 0.00 | 0.00 | 59 | 1015.6 |
| 20260902185646 | 34 | 198 | 3.2 | 6.4 | 0.00 | 0.00 | 0.00 | 60 | 1015.6 |
| 20260902185147 | 33 | 55 | 1.6 | 8.0 | 0.00 | 0.00 | 0.00 | 60 | 1015.9 |
| 20260902184646 | 33 | 58 | 6.4 | 14.5 | 0.00 | 0.00 | 0.00 | 58 | 1015.9 |
| 20260902184146 | 33 | 50 | 8.0 | 11.3 | 0.00 | 0.00 | 0.00 | 60 | 1015.9 |
| 20260902183647 | 33 | 65 | 6.4 | 8.0 | 0.00 | 0.00 | 0.00 | 62 | 1015.9 |
| 20260902183146 | 33 | 96 | 8.0 | 9.7 | 0.00 | 0.00 | 0.00 | 62 | 1016.3 |
| 20260902182646 | 33 | 79 | 6.4 | 9.7 | 0.00 | 0.00 | 0.00 | 60 | 1016.3 |
| 20260902182149 | 33 | 24 | 8.0 | 14.5 | 0.00 | 0.00 | 0.00 | 60 | 1016.3 |
| 20260902181647 | 33 | 58 | 6.4 | 12.9 | 0.00 | 0.00 | 0.00 | 59 | 1015.9 |
| 20260902181148 | 33 | 52 | 3.2 | 9.7 | 0.00 | 0.00 | 0.00 | 63 | 1015.9 |
| 20260902180647 | 33 | 174 | 3.2 | 9.7 | 0.00 | 0.00 | 0.00 | 64 | 1015.9 |
| 20260902180148 | 32 | 47 | 6.4 | 16.1 | 0.00 | 0.00 | 0.00 | 63 | 1016.3 |
| 20260902175648 | 32 | 28 | 8.0 | 14.5 | 0.00 | 0.00 | 0.00 | 65 | 1016.3 |
| 20260902175147 | 32 | 70 | 11.3 | 12.9 | 0.00 | 0.00 | 0.00 | 65 | 1015.9 |
| 20260902174647 | 32 | 78 | 9.7 | 14.5 | 0.00 | 0.00 | 0.00 | 67 | 1016.3 |
| 20260902173714 | 32 | 40 | 9.7 | 17.7 | 0.00 | 0.00 | 0.00 | 67 | 1016.6 |
| 20260902173147 | 32 | 27 | 9.7 | 16.1 | 0.00 | 0.00 | 0.00 | 68 | 1016.6 |
| 20260902172649 | 32 | 19 | 9.7 | 16.1 | 0.00 | 0.00 | 0.00 | 68 | 1016.6 |
| 20260902172147 | 32 | 54 | 8.0 | 16.1 | 0.00 | 0.00 | 0.00 | 67 | 1016.6 |
| 20260902171647 | 32 | 44 | 9.7 | 12.9 | 0.00 | 0.00 | 0.00 | 69 | 1016.9 |
| 20260902171147 | 32 | 79 | 8.0 | 14.5 | 0.00 | 0.00 | 0.00 | 69 | 1016.9 |
| 20260902170646 | 32 | 46 | 9.7 | 11.3 | 0.00 | 0.00 | 0.00 | 70 | 1016.9 |
| 20260902170146 | 32 | 32 | 8.0 | 11.3 | 0.00 | 0.00 | 0.00 | 71 | 1016.9 |
| 20260902165647 | 31 | 44 | 6.4 | 17.7 | 0.00 | 0.00 | 0.00 | 72 | 1017.3 |
| 20260902165150 | 31 | 58 | 6.4 | 11.3 | 0.00 | 0.00 | 0.00 | 72 | 1016.9 |
| 20260902164646 | 31 | 28 | 4.8 | 8.0 | 0.00 | 0.00 | 0.00 | 75 | 1016.9 |
| 20260902164146 | 32 | 358 | 3.2 | 9.7 | 0.00 | 0.00 | 0.00 | 72 | 1017.3 |
| 20260902163649 | 32 | 324 | 4.8 | 11.3 | 0.00 | 0.00 | 0.00 | 72 | 1017.3 |
| 20260902163146 | 32 | 16 | 8.0 | 11.3 | 0.00 | 0.00 | 0.00 | 72 | 1017.3 |
| 20260902162648 | 32 | 45 | 0.0 | 12.9 | 0.00 | 0.00 | 0.00 | 72 | 1017.3 |
| 20260902162150 | 32 | 13 | 8.0 | 14.5 | 0.00 | 0.00 | 0.00 | 71 | 1017.6 |